Skip Page Navigation
NASA JPL Caltech
NASA Logo - Jet Propulsion Laboratory + View the NASA Portal
+ Center for Near-Earth Object Studies
JPL Home Earth Solar System Stars & Galaxies Technology
JPL Solar System Dynamics
BODIES ORBITS EPHEMERIDES TOOLS PHYSICAL DATA DISCOVERY FAQ SITE MAP
JPL Small-Body Database Browser
Search: [ help ]  
80 Sappho (A864 JA)
Classification: Main-belt Asteroid          SPK-ID: 2000080
Ephemeris | Orbit Diagram | Orbital Elements | Mission Design | Physical Parameters | Discovery Circumstances ]

[ hide orbit diagram ]

For accurate long-term ephemerides, please instead use our Horizons system.This orbit viewer was implemented using two-body methods, and hence should not be used for determining accurate long-term trajectories (over several years or decades) or planetary encounter circumstances.


Orbital Elements at Epoch 2459396.5 (2021-Jul-01.0) TDB
Reference: JPL 50 (heliocentric ecliptic J2000)
 Element Value Uncertainty (1-sigma)   Units 
e .2004547869447238 1.7479e-08  
a 2.296093172096 2.5876e-09 au
q 1.835830304478261 4.0117e-08 au
i 8.674979383312847 2.2799e-07 deg
node 218.6733040866276 2.9158e-06 deg
peri 139.5209319697945 5.3985e-06 deg
M 323.0103635817974 3.4848e-06 deg
tp 2459527.075064581796
(2021-Nov-08.57506458)
1.2418e-05 TDB
period 1270.816039335664
3.48
2.1482e-06
5.881e-09
d
yr
n .2832825435443785 4.7887e-10 deg/d
Q 2.756356039713739 3.1063e-09 au
  Orbit Determination Parameters
   # obs. used (total)      2886  
   data-arc span      56866 days (155.69 yr)  
   first obs. used      1865-10-08  
   last obs. used      2021-06-18  
   planetary ephem.      DE441  
   SB-pert. ephem.      SB441-N16  
   condition code      0  
   norm. resid. RMS      .50541  
   source      ORB  
   producer      Otto Matic  
   solution date      2021-Jul-08 10:30:27  

Additional Information
 Earth MOID = .842151 au 
 Jupiter MOID = 2.73907 au 
 T_jup = 3.553 
[ show covariance matrix ]

Ephemeris | Orbit Diagram | Orbital Elements | Mission Design | Physical Parameters | Discovery Circumstances ]

Physical Parameter Table
Parameter Symbol Value Units Sigma Reference Notes
absolute magnitude H 8.06   n/a E2021B10 IRAS observations used: 29
diameter diameter 68.563 km 1.033 urn:nasa:pds:neowise_diameters_albedos::2.0[mainbelt] (http://adsabs.harvard.edu/abs/2014ApJ...791..121M)  
rotation period rot_per 14.030 h n/a LCDB (Rev. 2020-October); Warner et al., 2009 Published Reference List:
[Harris, A.W.; Young, J.W. (1983) Icarus 54, 59-109.]
[Debehogne, H.; Lagerkvist, C.-I.; Hahn, G. (1990) in Asteroids, Comets, Meteors III. C.-I. Lagerkvist, H. Rickman, B.A. Lindblad, M. Lindgren, eds. Uppsala, p. 45-48.]
[Michalowski, T. (1993) Icarus 106, 563-572.]
[Durech, J. (2006) IAU 2006, poster paper.]
[Durech, J.; Kaasalainen, M.; Warner, B.D.; Fauerbach, M.; et al. (2009) Astron. Astrophys. 493, 291-297.]
[Pilcher, F. (2010) Minor Planet Bull. 37, 148-149.]
[Durech, J.; Kaasalainen, M.; Herald, D.; Dunham, D.; et al. (2011) Icarus 214, 652-670.]
[Hanus, J.; Marchis, F.; Durech, J. (2013) Icarus 226, 1045-1057.]
[Hanus, J.; Viikinkoski, M.; Marchis, F.; Durech, J.; et al (2017) Astron. Astrophys. 601, A114.]
geometric albedo albedo 0.206   0.014 urn:nasa:pds:neowise_diameters_albedos::2.0[mainbelt] (http://adsabs.harvard.edu/abs/2014ApJ...791..121M)  
B-V BV 0.901   0.019 EAR-A-5-DDR-UBV-MEAN-VALUES-V1.2 #obs=4; phase (min.=7.56, mean=16.47, max.=25.92) deg.
U-B UB 0.523   0.029 EAR-A-5-DDR-UBV-MEAN-VALUES-V1.2 #obs=5; phase (min.=7.56, mean=18.69, max.=27.58) deg.
Tholen spectral type spec_T S   n/a EAR-A-5-DDR-TAXONOMY-V4.0 used 7 color indices; used ground-based radiometric albedo
SMASSII spectral type spec_B S   n/a EAR-A-5-DDR-TAXONOMY-V4.0 based on a high-resolution spectrum by Xu et al. (1995) or Bus and Binzel (2002)

80 Sappho (A864 JA)          Discovered 1864-May-02 by Pogson, N. R. at Madras
May 3 is date of first measurement.
Reference: DISCOVERY.DBLast Updated: 2003-08-29
Ephemeris | Orbit Diagram | Orbital Elements | Mission Design | Physical Parameters | Discovery Circumstances ]
ABOUT SSD CREDITS/AWARDS PRIVACY/COPYRIGHT GLOSSARY LINKS
FirstGov 2021-Jul-24 05:49 UT
(server date/time)  
NASA Home Page
Site Manager:   Ryan S. Park
Webmaster  Alan B. Chamberlin